owner,sensor,date,latitude,longitude,mass_concentration_of_chlorophyll_in_sea_water,qcFlag 
SCCF RECON,ioos:station:SCCF:11:1,2017-12-01T05:00:00Z,26.4679,-82.0631,6.19,1111122 
SCCF RECON,ioos:station:SCCF:11:1,2017-12-01T06:00:00Z,26.4679,-82.0631,7.15,1111122 
SCCF RECON,ioos:station:SCCF:11:1,2017-12-01T07:00:00Z,26.4679,-82.0631,7.52,1111122 
SCCF RECON,ioos:station:SCCF:11:1,2017-12-01T08:00:00Z,26.4679,-82.0631,7.46,1111122 
SCCF RECON,ioos:station:SCCF:11:1,2017-12-01T09:00:00Z,26.4679,-82.0631,7.03,1111122 
SCCF RECON,ioos:station:SCCF:11:1,2017-12-01T10:00:00Z,26.4679,-82.0631,7.52,1111122 
SCCF RECON,ioos:station:SCCF:11:1,2017-12-01T11:00:00Z,26.4679,-82.0631,7.59,1111122 
SCCF RECON,ioos:station:SCCF:11:1,2017-12-01T12:00:00Z,26.4679,-82.0631,6.64,1111122 
SCCF RECON,ioos:station:SCCF:11:1,2017-12-01T13:00:00Z,26.4679,-82.0631,6.6,1111122 
SCCF RECON,ioos:station:SCCF:11:1,2017-12-01T14:00:00Z,26.4679,-82.0631,4.9,1111122 
SCCF RECON,ioos:station:SCCF:11:1,2017-12-01T15:00:00Z,26.4679,-82.0631,4.9,1111122 
SCCF RECON,ioos:station:SCCF:11:1,2017-12-01T16:00:00Z,26.4679,-82.0631,4.92,1111122 
SCCF RECON,ioos:station:SCCF:11:1,2017-12-01T17:00:00Z,26.4679,-82.0631,4.86,1111122 
SCCF RECON,ioos:station:SCCF:11:1,2017-12-01T18:00:00Z,26.4679,-82.0631,5.31,1111122 
SCCF RECON,ioos:station:SCCF:11:1,2017-12-01T19:00:00Z,26.4679,-82.0631,6.5,1111122 
SCCF RECON,ioos:station:SCCF:11:1,2017-12-01T20:00:00Z,26.4679,-82.0631,7.96,1111122 
SCCF RECON,ioos:station:SCCF:11:1,2017-12-01T21:00:00Z,26.4679,-82.0631,9.88,1111122 
SCCF RECON,ioos:station:SCCF:11:1,2017-12-01T22:00:00Z,26.4679,-82.0631,9.91,1111122 
SCCF RECON,ioos:station:SCCF:11:1,2017-12-02T05:00:00Z,26.4679,-82.0631,4.69,1111122 
SCCF RECON,ioos:station:SCCF:11:1,2017-12-02T06:00:00Z,26.4679,-82.0631,6.51,1111122 
SCCF RECON,ioos:station:SCCF:11:1,2017-12-02T07:00:00Z,26.4679,-82.0631,6.83,1111122 
SCCF RECON,ioos:station:SCCF:11:1,2017-12-02T08:00:00Z,26.4679,-82.0631,6.65,1111122 
SCCF RECON,ioos:station:SCCF:11:1,2017-12-02T09:00:00Z,26.4679,-82.0631,6.59,1111122 
SCCF RECON,ioos:station:SCCF:11:1,2017-12-02T10:00:00Z,26.4679,-82.0631,6.84,1111122 
SCCF RECON,ioos:station:SCCF:11:1,2017-12-02T11:00:00Z,26.4679,-82.0631,7.13,1111122 
SCCF RECON,ioos:station:SCCF:11:1,2017-12-02T12:00:00Z,26.4679,-82.0631,7.07,1111122 
SCCF RECON,ioos:station:SCCF:11:1,2017-12-02T13:00:00Z,26.4679,-82.0631,6.39,1111122 
SCCF RECON,ioos:station:SCCF:11:1,2017-12-02T14:00:00Z,26.4679,-82.0631,5.1,1111122 
SCCF RECON,ioos:station:SCCF:11:1,2017-12-02T15:00:00Z,26.4679,-82.0631,5.44,1111122 
SCCF RECON,ioos:station:SCCF:11:1,2017-12-02T16:00:00Z,26.4679,-82.0631,5.39,1111122 
SCCF RECON,ioos:station:SCCF:11:1,2017-12-02T17:00:00Z,26.4679,-82.0631,5.14,1111122 
SCCF RECON,ioos:station:SCCF:11:1,2017-12-02T18:00:00Z,26.4679,-82.0631,4.48,1111122 
SCCF RECON,ioos:station:SCCF:11:1,2017-12-02T19:00:00Z,26.4679,-82.0631,5.26,1111122 
SCCF RECON,ioos:station:SCCF:11:1,2017-12-02T20:00:00Z,26.4679,-82.0631,7.67,1111122 
SCCF RECON,ioos:station:SCCF:11:1,2017-12-02T21:00:00Z,26.4679,-82.0631,7.93,1111122 
SCCF RECON,ioos:station:SCCF:11:1,2017-12-02T22:00:00Z,26.4679,-82.0631,7.71,1111122 
SCCF RECON,ioos:station:SCCF:11:1,2017-12-03T05:00:00Z,26.4679,-82.0631,6.02,1111122 
SCCF RECON,ioos:station:SCCF:11:1,2017-12-03T06:00:00Z,26.4679,-82.0631,5.81,1111122 
SCCF RECON,ioos:station:SCCF:11:1,2017-12-03T07:00:00Z,26.4679,-82.0631,6.81,1111122 
SCCF RECON,ioos:station:SCCF:11:1,2017-12-03T08:00:00Z,26.4679,-82.0631,6.73,1111122 
SCCF RECON,ioos:station:SCCF:11:1,2017-12-03T09:00:00Z,26.4679,-82.0631,6.55,1111122 
SCCF RECON,ioos:station:SCCF:11:1,2017-12-03T10:00:00Z,26.4679,-82.0631,6.27,1111122 
SCCF RECON,ioos:station:SCCF:11:1,2017-12-03T11:00:00Z,26.4679,-82.0631,6.3,1111122 
SCCF RECON,ioos:station:SCCF:11:1,2017-12-03T12:00:00Z,26.4679,-82.0631,6.64,1111122 
SCCF RECON,ioos:station:SCCF:11:1,2017-12-03T13:00:00Z,26.4679,-82.0631,5.99,1111122 
SCCF RECON,ioos:station:SCCF:11:1,2017-12-03T14:00:00Z,26.4679,-82.0631,5.7,1111122 
SCCF RECON,ioos:station:SCCF:11:1,2017-12-03T15:00:00Z,26.4679,-82.0631,5.23,1111122 
SCCF RECON,ioos:station:SCCF:11:1,2017-12-03T16:00:00Z,26.4679,-82.0631,5.5,1111122 
SCCF RECON,ioos:station:SCCF:11:1,2017-12-03T17:00:00Z,26.4679,-82.0631,5.34,1111122 
SCCF RECON,ioos:station:SCCF:11:1,2017-12-03T18:00:00Z,26.4679,-82.0631,4.84,1111122 
SCCF RECON,ioos:station:SCCF:11:1,2017-12-03T19:00:00Z,26.4679,-82.0631,5.12,1111122 
SCCF RECON,ioos:station:SCCF:11:1,2017-12-03T20:00:00Z,26.4679,-82.0631,7.04,1111122 
SCCF RECON,ioos:station:SCCF:11:1,2017-12-03T21:00:00Z,26.4679,-82.0631,9.35,1111122 
SCCF RECON,ioos:station:SCCF:11:1,2017-12-03T22:00:00Z,26.4679,-82.0631,9.44,1111122 
SCCF RECON,ioos:station:SCCF:11:1,2017-12-04T05:00:00Z,26.4679,-82.0631,7.6,1111122 
SCCF RECON,ioos:station:SCCF:11:1,2017-12-04T06:00:00Z,26.4679,-82.0631,7.2,1111122 
SCCF RECON,ioos:station:SCCF:11:1,2017-12-04T07:00:00Z,26.4679,-82.0631,6.8,1111122 
SCCF RECON,ioos:station:SCCF:11:1,2017-12-04T08:00:00Z,26.4679,-82.0631,6.59,1111122 
SCCF RECON,ioos:station:SCCF:11:1,2017-12-04T09:00:00Z,26.4679,-82.0631,6.68,1111122 
SCCF RECON,ioos:station:SCCF:11:1,2017-12-04T10:00:00Z,26.4679,-82.0631,6.83,1111122 
SCCF RECON,ioos:station:SCCF:11:1,2017-12-04T11:00:00Z,26.4679,-82.0631,6.49,1111122 
SCCF RECON,ioos:station:SCCF:11:1,2017-12-04T12:00:00Z,26.4679,-82.0631,6.4,1111122 
SCCF RECON,ioos:station:SCCF:11:1,2017-12-04T13:00:00Z,26.4679,-82.0631,6.49,1111122 
SCCF RECON,ioos:station:SCCF:11:1,2017-12-04T14:00:00Z,26.4679,-82.0631,5.97,1111122 
SCCF RECON,ioos:station:SCCF:11:1,2017-12-04T15:00:00Z,26.4679,-82.0631,5.98,1111122 
SCCF RECON,ioos:station:SCCF:11:1,2017-12-04T16:00:00Z,26.4679,-82.0631,6.13,1111122 
SCCF RECON,ioos:station:SCCF:11:1,2017-12-04T17:00:00Z,26.4679,-82.0631,7.25,1111122 
SCCF RECON,ioos:station:SCCF:11:1,2017-12-04T18:00:00Z,26.4679,-82.0631,6.23,1111122 
SCCF RECON,ioos:station:SCCF:11:1,2017-12-04T19:00:00Z,26.4679,-82.0631,5.55,1111122 
SCCF RECON,ioos:station:SCCF:11:1,2017-12-04T20:00:00Z,26.4679,-82.0631,6.12,1111122 
SCCF RECON,ioos:station:SCCF:11:1,2017-12-04T21:00:00Z,26.4679,-82.0631,6.52,1111122 
SCCF RECON,ioos:station:SCCF:11:1,2017-12-04T22:00:00Z,26.4679,-82.0631,9.44,1111122 
SCCF RECON,ioos:station:SCCF:11:1,2017-12-05T05:00:00Z,26.4679,-82.0631,5.57,1111122 
SCCF RECON,ioos:station:SCCF:11:1,2017-12-05T06:00:00Z,26.4679,-82.0631,5.31,1111122 
SCCF RECON,ioos:station:SCCF:11:1,2017-12-05T07:00:00Z,26.4679,-82.0631,4.43,1111122 
SCCF RECON,ioos:station:SCCF:11:1,2017-12-05T08:00:00Z,26.4679,-82.0631,7.27,1111122 
SCCF RECON,ioos:station:SCCF:11:1,2017-12-05T09:00:00Z,26.4679,-82.0631,7.57,1111122 
SCCF RECON,ioos:station:SCCF:11:1,2017-12-05T10:00:00Z,26.4679,-82.0631,7.74,1111122 
SCCF RECON,ioos:station:SCCF:11:1,2017-12-05T11:00:00Z,26.4679,-82.0631,7.61,1111122 
SCCF RECON,ioos:station:SCCF:11:1,2017-12-05T12:00:00Z,26.4679,-82.0631,7.32,1111122 
SCCF RECON,ioos:station:SCCF:11:1,2017-12-05T13:00:00Z,26.4679,-82.0631,7.08,1111122 
SCCF RECON,ioos:station:SCCF:11:1,2017-12-05T14:00:00Z,26.4679,-82.0631,7.93,1111122 
SCCF RECON,ioos:station:SCCF:11:1,2017-12-05T15:00:00Z,26.4679,-82.0631,6.42,1111122 
SCCF RECON,ioos:station:SCCF:11:1,2017-12-05T16:00:00Z,26.4679,-82.0631,5.34,1111122 
SCCF RECON,ioos:station:SCCF:11:1,2017-12-05T17:00:00Z,26.4679,-82.0631,5.98,1111122 
SCCF RECON,ioos:station:SCCF:11:1,2017-12-05T18:00:00Z,26.4679,-82.0631,6.65,1111122 
SCCF RECON,ioos:station:SCCF:11:1,2017-12-05T19:00:00Z,26.4679,-82.0631,5.79,1111122 
SCCF RECON,ioos:station:SCCF:11:1,2017-12-05T20:00:00Z,26.4679,-82.0631,6.75,1111122 
SCCF RECON,ioos:station:SCCF:11:1,2017-12-05T21:00:00Z,26.4679,-82.0631,6.63,1111122 
SCCF RECON,ioos:station:SCCF:11:1,2017-12-05T22:00:00Z,26.4679,-82.0631,6.73,1111122 
SCCF RECON,ioos:station:SCCF:11:1,2017-12-06T05:00:00Z,26.4679,-82.0631,6.99,1111122 
SCCF RECON,ioos:station:SCCF:11:1,2017-12-06T06:00:00Z,26.4679,-82.0631,6.8,1111122 
SCCF RECON,ioos:station:SCCF:11:1,2017-12-06T07:00:00Z,26.4679,-82.0631,6.21,1111122 
SCCF RECON,ioos:station:SCCF:11:1,2017-12-06T08:00:00Z,26.4679,-82.0631,5.39,1111122 
SCCF RECON,ioos:station:SCCF:11:1,2017-12-06T09:00:00Z,26.4679,-82.0631,8.95,1111122 
SCCF RECON,ioos:station:SCCF:11:1,2017-12-06T10:00:00Z,26.4679,-82.0631,8.33,1111122 
SCCF RECON,ioos:station:SCCF:11:1,2017-12-06T11:00:00Z,26.4679,-82.0631,8.08,1111122 
SCCF RECON,ioos:station:SCCF:11:1,2017-12-06T12:00:00Z,26.4679,-82.0631,8.07,1111122 
SCCF RECON,ioos:station:SCCF:11:1,2017-12-06T13:00:00Z,26.4679,-82.0631,7.84,1111122 
SCCF RECON,ioos:station:SCCF:11:1,2017-12-06T14:00:00Z,26.4679,-82.0631,7.62,1111122 
SCCF RECON,ioos:station:SCCF:11:1,2017-12-06T15:00:00Z,26.4679,-82.0631,8.39,1111122 
SCCF RECON,ioos:station:SCCF:11:1,2017-12-06T16:00:00Z,26.4679,-82.0631,6.6,1111122 
SCCF RECON,ioos:station:SCCF:11:1,2017-12-06T17:00:00Z,26.4679,-82.0631,6.37,1111122 
SCCF RECON,ioos:station:SCCF:11:1,2017-12-06T18:00:00Z,26.4679,-82.0631,8.95,1111122 
SCCF RECON,ioos:station:SCCF:11:1,2017-12-06T19:00:00Z,26.4679,-82.0631,8.55,1111122 
SCCF RECON,ioos:station:SCCF:11:1,2017-12-06T20:00:00Z,26.4679,-82.0631,7.76,1111122 
SCCF RECON,ioos:station:SCCF:11:1,2017-12-06T21:00:00Z,26.4679,-82.0631,7.73,1111122 
SCCF RECON,ioos:station:SCCF:11:1,2017-12-06T22:00:00Z,26.4679,-82.0631,7.18,1111122 
SCCF RECON,ioos:station:SCCF:11:1,2017-12-07T05:00:00Z,26.4679,-82.0631,6.98,1111122 
SCCF RECON,ioos:station:SCCF:11:1,2017-12-07T06:00:00Z,26.4679,-82.0631,6.08,1111122 
SCCF RECON,ioos:station:SCCF:11:1,2017-12-07T07:00:00Z,26.4679,-82.0631,6.24,1111122 
SCCF RECON,ioos:station:SCCF:11:1,2017-12-07T08:00:00Z,26.4679,-82.0631,5.75,1111122 
SCCF RECON,ioos:station:SCCF:11:1,2017-12-07T09:00:00Z,26.4679,-82.0631,5.0,1111122 
SCCF RECON,ioos:station:SCCF:11:1,2017-12-07T10:00:00Z,26.4679,-82.0631,5.85,1111122 
SCCF RECON,ioos:station:SCCF:11:1,2017-12-07T11:00:00Z,26.4679,-82.0631,7.88,1111122 
SCCF RECON,ioos:station:SCCF:11:1,2017-12-07T12:00:00Z,26.4679,-82.0631,7.86,1111122 
SCCF RECON,ioos:station:SCCF:11:1,2017-12-07T13:00:00Z,26.4679,-82.0631,7.28,1111122 
SCCF RECON,ioos:station:SCCF:11:1,2017-12-07T14:00:00Z,26.4679,-82.0631,8.05,1111122 
SCCF RECON,ioos:station:SCCF:11:1,2017-12-07T15:00:00Z,26.4679,-82.0631,8.43,1111122 
SCCF RECON,ioos:station:SCCF:11:1,2017-12-07T16:00:00Z,26.4679,-82.0631,7.3,1111122 
SCCF RECON,ioos:station:SCCF:11:1,2017-12-07T17:00:00Z,26.4679,-82.0631,6.52,1111122 
SCCF RECON,ioos:station:SCCF:11:1,2017-12-07T18:00:00Z,26.4679,-82.0631,7.11,1111122 
SCCF RECON,ioos:station:SCCF:11:1,2017-12-07T19:00:00Z,26.4679,-82.0631,9.98,1111122 
SCCF RECON,ioos:station:SCCF:11:1,2017-12-07T20:00:00Z,26.4679,-82.0631,8.83,1111122 
SCCF RECON,ioos:station:SCCF:11:1,2017-12-07T22:00:00Z,26.4679,-82.0631,8.24,1111122 
SCCF RECON,ioos:station:SCCF:11:1,2017-12-08T05:00:00Z,26.4679,-82.0631,6.35,1111122 
SCCF RECON,ioos:station:SCCF:11:1,2017-12-08T06:00:00Z,26.4679,-82.0631,5.52,1111122 
SCCF RECON,ioos:station:SCCF:11:1,2017-12-08T07:00:00Z,26.4679,-82.0631,6.16,1111122 
SCCF RECON,ioos:station:SCCF:11:1,2017-12-08T08:00:00Z,26.4679,-82.0631,6.41,1111122 
SCCF RECON,ioos:station:SCCF:11:1,2017-12-08T09:00:00Z,26.4679,-82.0631,5.65,1111122 
SCCF RECON,ioos:station:SCCF:11:1,2017-12-08T10:00:00Z,26.4679,-82.0631,4.73,1111122 
SCCF RECON,ioos:station:SCCF:11:1,2017-12-08T11:00:00Z,26.4679,-82.0631,3.37,1111122 
SCCF RECON,ioos:station:SCCF:11:1,2017-12-08T12:00:00Z,26.4679,-82.0631,8.21,1111122 
SCCF RECON,ioos:station:SCCF:11:1,2017-12-08T13:00:00Z,26.4679,-82.0631,7.86,1111122 
SCCF RECON,ioos:station:SCCF:11:1,2017-12-08T14:00:00Z,26.4679,-82.0631,8.26,1111122 
SCCF RECON,ioos:station:SCCF:11:1,2017-12-08T15:00:00Z,26.4679,-82.0631,7.94,1111122 
SCCF RECON,ioos:station:SCCF:11:1,2017-12-08T16:00:00Z,26.4679,-82.0631,9.67,1111122 
SCCF RECON,ioos:station:SCCF:11:1,2017-12-08T17:00:00Z,26.4679,-82.0631,7.34,1111122 
SCCF RECON,ioos:station:SCCF:11:1,2017-12-08T18:00:00Z,26.4679,-82.0631,6.68,1111122 
SCCF RECON,ioos:station:SCCF:11:1,2017-12-08T19:00:00Z,26.4679,-82.0631,9.83,1111122 
SCCF RECON,ioos:station:SCCF:11:1,2017-12-08T20:00:00Z,26.4679,-82.0631,9.67,1111122 
SCCF RECON,ioos:station:SCCF:11:1,2017-12-08T21:00:00Z,26.4679,-82.0631,9.58,1111122 
SCCF RECON,ioos:station:SCCF:11:1,2017-12-08T22:00:00Z,26.4679,-82.0631,7.91,1111122 
SCCF RECON,ioos:station:SCCF:11:1,2017-12-09T05:00:00Z,26.4679,-82.0631,5.8,1111122 
SCCF RECON,ioos:station:SCCF:11:1,2017-12-09T06:00:00Z,26.4679,-82.0631,7.16,1111122 
SCCF RECON,ioos:station:SCCF:11:1,2017-12-09T07:00:00Z,26.4679,-82.0631,5.13,1111122 
SCCF RECON,ioos:station:SCCF:11:1,2017-12-09T08:00:00Z,26.4679,-82.0631,6.24,1111122 
SCCF RECON,ioos:station:SCCF:11:1,2017-12-09T09:00:00Z,26.4679,-82.0631,6.48,1111122 
SCCF RECON,ioos:station:SCCF:11:1,2017-12-09T10:00:00Z,26.4679,-82.0631,7.97,1111122 
SCCF RECON,ioos:station:SCCF:11:1,2017-12-09T11:00:00Z,26.4679,-82.0631,6.69,1111122 
SCCF RECON,ioos:station:SCCF:11:1,2017-12-09T12:00:00Z,26.4679,-82.0631,8.21,1111122 
SCCF RECON,ioos:station:SCCF:11:1,2017-12-09T13:00:00Z,26.4679,-82.0631,8.06,1111122 
SCCF RECON,ioos:station:SCCF:11:1,2017-12-09T14:00:00Z,26.4679,-82.0631,7.98,1111122 
SCCF RECON,ioos:station:SCCF:11:1,2017-12-09T15:00:00Z,26.4679,-82.0631,7.34,1111122 
SCCF RECON,ioos:station:SCCF:11:1,2017-12-09T16:00:00Z,26.4679,-82.0631,7.9,1111122 
SCCF RECON,ioos:station:SCCF:11:1,2017-12-09T17:00:00Z,26.4679,-82.0631,8.26,1111122 
SCCF RECON,ioos:station:SCCF:11:1,2017-12-09T18:00:00Z,26.4679,-82.0631,9.92,1111122 
SCCF RECON,ioos:station:SCCF:11:1,2017-12-09T19:00:00Z,26.4679,-82.0631,8.62,1111122 
SCCF RECON,ioos:station:SCCF:11:1,2017-12-09T20:00:00Z,26.4679,-82.0631,8.22,1111122 
SCCF RECON,ioos:station:SCCF:11:1,2017-12-09T21:00:00Z,26.4679,-82.0631,8.8,1111122 
SCCF RECON,ioos:station:SCCF:11:1,2017-12-09T22:00:00Z,26.4679,-82.0631,11.14,1111122 
SCCF RECON,ioos:station:SCCF:11:1,2017-12-10T05:00:00Z,26.4679,-82.0631,9.45,1111122 
SCCF RECON,ioos:station:SCCF:11:1,2017-12-10T06:00:00Z,26.4679,-82.0631,9.61,1111122 
SCCF RECON,ioos:station:SCCF:11:1,2017-12-10T07:00:00Z,26.4679,-82.0631,8.95,1111122 
SCCF RECON,ioos:station:SCCF:11:1,2017-12-10T08:00:00Z,26.4679,-82.0631,8.22,1111122 
SCCF RECON,ioos:station:SCCF:11:1,2017-12-10T09:00:00Z,26.4679,-82.0631,9.0,1111122 
SCCF RECON,ioos:station:SCCF:11:1,2017-12-10T10:00:00Z,26.4679,-82.0631,10.16,1111122 
SCCF RECON,ioos:station:SCCF:11:1,2017-12-10T11:00:00Z,26.4679,-82.0631,9.42,1111122 
SCCF RECON,ioos:station:SCCF:11:1,2017-12-10T12:00:00Z,26.4679,-82.0631,9.38,1111122 
SCCF RECON,ioos:station:SCCF:11:1,2017-12-10T13:00:00Z,26.4679,-82.0631,8.62,1111122 
SCCF RECON,ioos:station:SCCF:11:1,2017-12-10T14:00:00Z,26.4679,-82.0631,8.29,1111122 
SCCF RECON,ioos:station:SCCF:11:1,2017-12-10T15:00:00Z,26.4679,-82.0631,8.28,1111122 
SCCF RECON,ioos:station:SCCF:11:1,2017-12-10T16:00:00Z,26.4679,-82.0631,7.54,1111122 
SCCF RECON,ioos:station:SCCF:11:1,2017-12-10T17:00:00Z,26.4679,-82.0631,7.58,1111122 
SCCF RECON,ioos:station:SCCF:11:1,2017-12-10T18:00:00Z,26.4679,-82.0631,7.66,1111122 
SCCF RECON,ioos:station:SCCF:11:1,2017-12-10T19:00:00Z,26.4679,-82.0631,8.81,1111122 
SCCF RECON,ioos:station:SCCF:11:1,2017-12-10T20:00:00Z,26.4679,-82.0631,10.81,1111122 
SCCF RECON,ioos:station:SCCF:11:1,2017-12-10T21:00:00Z,26.4679,-82.0631,11.41,1111122 
SCCF RECON,ioos:station:SCCF:11:1,2017-12-10T22:00:00Z,26.4679,-82.0631,12.69,1111122 
SCCF RECON,ioos:station:SCCF:11:1,2017-12-11T05:00:00Z,26.4679,-82.0631,10.32,1111122 
SCCF RECON,ioos:station:SCCF:11:1,2017-12-11T06:00:00Z,26.4679,-82.0631,11.08,1111122 
SCCF RECON,ioos:station:SCCF:11:1,2017-12-11T07:00:00Z,26.4679,-82.0631,10.72,1111122 
SCCF RECON,ioos:station:SCCF:11:1,2017-12-11T08:00:00Z,26.4679,-82.0631,10.59,1111122 
SCCF RECON,ioos:station:SCCF:11:1,2017-12-11T09:00:00Z,26.4679,-82.0631,10.31,1111122 
SCCF RECON,ioos:station:SCCF:11:1,2017-12-11T10:00:00Z,26.4679,-82.0631,10.34,1111122 
SCCF RECON,ioos:station:SCCF:11:1,2017-12-11T11:00:00Z,26.4679,-82.0631,9.68,1111122 
SCCF RECON,ioos:station:SCCF:11:1,2017-12-11T12:00:00Z,26.4679,-82.0631,9.15,1111122 
SCCF RECON,ioos:station:SCCF:11:1,2017-12-11T13:00:00Z,26.4679,-82.0631,10.7,1111122 
SCCF RECON,ioos:station:SCCF:11:1,2017-12-11T14:00:00Z,26.4679,-82.0631,9.1,1111122 
SCCF RECON,ioos:station:SCCF:11:1,2017-12-11T15:00:00Z,26.4679,-82.0631,9.18,1111122 
SCCF RECON,ioos:station:SCCF:11:1,2017-12-11T16:00:00Z,26.4679,-82.0631,9.52,1111122 
SCCF RECON,ioos:station:SCCF:11:1,2017-12-11T17:00:00Z,26.4679,-82.0631,9.33,1111122 
SCCF RECON,ioos:station:SCCF:11:1,2017-12-11T18:00:00Z,26.4679,-82.0631,8.96,1111122 
SCCF RECON,ioos:station:SCCF:11:1,2017-12-11T19:00:00Z,26.4679,-82.0631,9.54,1111122 
SCCF RECON,ioos:station:SCCF:11:1,2017-12-11T20:00:00Z,26.4679,-82.0631,11.6,1111122 
SCCF RECON,ioos:station:SCCF:11:1,2017-12-11T21:00:00Z,26.4679,-82.0631,11.72,1111122 
SCCF RECON,ioos:station:SCCF:11:1,2017-12-11T22:00:00Z,26.4679,-82.0631,12.01,1111122 
SCCF RECON,ioos:station:SCCF:11:1,2017-12-12T05:00:00Z,26.4679,-82.0631,12.53,1111122 
SCCF RECON,ioos:station:SCCF:11:1,2017-12-12T06:00:00Z,26.4679,-82.0631,12.32,1111122 
SCCF RECON,ioos:station:SCCF:11:1,2017-12-12T07:00:00Z,26.4679,-82.0631,12.04,1111122 
SCCF RECON,ioos:station:SCCF:11:1,2017-12-12T08:00:00Z,26.4679,-82.0631,12.76,1111122 
SCCF RECON,ioos:station:SCCF:11:1,2017-12-12T09:00:00Z,26.4679,-82.0631,10.56,1111122 
SCCF RECON,ioos:station:SCCF:11:1,2017-12-12T10:00:00Z,26.4679,-82.0631,12.08,1111122 
SCCF RECON,ioos:station:SCCF:11:1,2017-12-12T11:00:00Z,26.4679,-82.0631,10.47,1111122 
SCCF RECON,ioos:station:SCCF:11:1,2017-12-12T12:00:00Z,26.4679,-82.0631,12.7,1111122 
SCCF RECON,ioos:station:SCCF:11:1,2017-12-12T13:00:00Z,26.4679,-82.0631,12.34,1111122 
SCCF RECON,ioos:station:SCCF:11:1,2017-12-12T14:00:00Z,26.4679,-82.0631,11.06,1111122 
SCCF RECON,ioos:station:SCCF:11:1,2017-12-12T15:00:00Z,26.4679,-82.0631,10.7,1111122 
SCCF RECON,ioos:station:SCCF:11:1,2017-12-12T16:00:00Z,26.4679,-82.0631,10.38,1111122 
SCCF RECON,ioos:station:SCCF:11:1,2017-12-12T17:00:00Z,26.4679,-82.0631,10.06,1111122 
SCCF RECON,ioos:station:SCCF:11:1,2017-12-12T18:00:00Z,26.4679,-82.0631,10.72,1111122 
SCCF RECON,ioos:station:SCCF:11:1,2017-12-12T20:00:00Z,26.4679,-82.0631,12.48,1111122 
SCCF RECON,ioos:station:SCCF:11:1,2017-12-12T21:00:00Z,26.4679,-82.0631,13.26,1111122 
SCCF RECON,ioos:station:SCCF:11:1,2017-12-12T22:00:00Z,26.4679,-82.0631,15.02,1111122 
SCCF RECON,ioos:station:SCCF:11:1,2017-12-13T09:00:00Z,26.4679,-82.0631,8.32,1111122 
SCCF RECON,ioos:station:SCCF:11:1,2017-12-13T10:00:00Z,26.4679,-82.0631,10.64,1111122 
SCCF RECON,ioos:station:SCCF:11:1,2017-12-13T11:00:00Z,26.4679,-82.0631,9.05,1111122 
SCCF RECON,ioos:station:SCCF:11:1,2017-12-13T12:00:00Z,26.4679,-82.0631,10.23,1111122 
SCCF RECON,ioos:station:SCCF:11:1,2017-12-13T13:00:00Z,26.4679,-82.0631,10.38,1111122 
SCCF RECON,ioos:station:SCCF:11:1,2017-12-13T14:00:00Z,26.4679,-82.0631,9.29,1111122 
SCCF RECON,ioos:station:SCCF:11:1,2017-12-13T17:00:00Z,26.4679,-82.0631,10.99,1111122 
SCCF RECON,ioos:station:SCCF:11:1,2017-12-13T18:00:00Z,26.4679,-82.0631,9.74,1111122 
SCCF RECON,ioos:station:SCCF:11:1,2017-12-13T19:00:00Z,26.4679,-82.0631,9.47,1111122 
SCCF RECON,ioos:station:SCCF:11:1,2017-12-13T20:00:00Z,26.4679,-82.0631,9.57,1111122 
SCCF RECON,ioos:station:SCCF:11:1,2017-12-13T21:00:00Z,26.4679,-82.0631,10.83,1111122 
SCCF RECON,ioos:station:SCCF:11:1,2017-12-13T22:00:00Z,26.4679,-82.0631,12.18,1111122 
SCCF RECON,ioos:station:SCCF:11:1,2017-12-14T11:00:00Z,26.4679,-82.0631,6.94,1111122 
SCCF RECON,ioos:station:SCCF:11:1,2017-12-14T12:00:00Z,26.4679,-82.0631,7.52,1111122 
SCCF RECON,ioos:station:SCCF:11:1,2017-12-14T13:00:00Z,26.4679,-82.0631,6.7,1111122 
SCCF RECON,ioos:station:SCCF:11:1,2017-12-14T14:00:00Z,26.4679,-82.0631,8.09,1111122 
SCCF RECON,ioos:station:SCCF:11:1,2017-12-14T15:00:00Z,26.4679,-82.0631,9.33,1111122 
SCCF RECON,ioos:station:SCCF:11:1,2017-12-14T16:00:00Z,26.4679,-82.0631,7.82,1111122 
SCCF RECON,ioos:station:SCCF:11:1,2017-12-14T17:00:00Z,26.4679,-82.0631,9.26,1111122 
SCCF RECON,ioos:station:SCCF:11:1,2017-12-14T18:00:00Z,26.4679,-82.0631,9.29,1111122 
SCCF RECON,ioos:station:SCCF:11:1,2017-12-14T19:00:00Z,26.4679,-82.0631,8.28,1111122 
SCCF RECON,ioos:station:SCCF:11:1,2017-12-14T20:00:00Z,26.4679,-82.0631,9.11,1111122 
SCCF RECON,ioos:station:SCCF:11:1,2017-12-14T21:00:00Z,26.4679,-82.0631,10.16,1111122 
SCCF RECON,ioos:station:SCCF:11:1,2017-12-14T22:00:00Z,26.4679,-82.0631,10.22,1111122 
SCCF RECON,ioos:station:SCCF:11:1,2017-12-15T05:00:00Z,26.4679,-82.0631,7.38,1111122 
SCCF RECON,ioos:station:SCCF:11:1,2017-12-15T06:00:00Z,26.4679,-82.0631,6.92,1111122 
SCCF RECON,ioos:station:SCCF:11:1,2017-12-15T07:00:00Z,26.4679,-82.0631,6.13,1111122 
SCCF RECON,ioos:station:SCCF:11:1,2017-12-15T08:00:00Z,26.4679,-82.0631,6.04,1111122 
SCCF RECON,ioos:station:SCCF:11:1,2017-12-15T09:00:00Z,26.4679,-82.0631,5.94,1111122 
SCCF RECON,ioos:station:SCCF:11:1,2017-12-15T10:00:00Z,26.4679,-82.0631,5.51,1111122 
SCCF RECON,ioos:station:SCCF:11:1,2017-12-15T11:00:00Z,26.4679,-82.0631,5.61,1111122 
SCCF RECON,ioos:station:SCCF:11:1,2017-12-15T12:00:00Z,26.4679,-82.0631,5.66,1111122 
SCCF RECON,ioos:station:SCCF:11:1,2017-12-15T13:00:00Z,26.4679,-82.0631,6.56,1111122 
SCCF RECON,ioos:station:SCCF:11:1,2017-12-15T14:00:00Z,26.4679,-82.0631,5.68,1111122 
SCCF RECON,ioos:station:SCCF:11:1,2017-12-15T15:00:00Z,26.4679,-82.0631,6.67,1111122 
SCCF RECON,ioos:station:SCCF:11:1,2017-12-15T16:00:00Z,26.4679,-82.0631,6.7,1111122 
SCCF RECON,ioos:station:SCCF:11:1,2017-12-15T17:00:00Z,26.4679,-82.0631,7.33,1111122 
SCCF RECON,ioos:station:SCCF:11:1,2017-12-15T18:00:00Z,26.4679,-82.0631,7.03,1111122 
SCCF RECON,ioos:station:SCCF:11:1,2017-12-15T19:00:00Z,26.4679,-82.0631,6.51,1111122 
SCCF RECON,ioos:station:SCCF:11:1,2017-12-15T20:00:00Z,26.4679,-82.0631,6.94,1111122 
SCCF RECON,ioos:station:SCCF:11:1,2017-12-15T21:00:00Z,26.4679,-82.0631,7.62,1111122 
SCCF RECON,ioos:station:SCCF:11:1,2017-12-15T22:00:00Z,26.4679,-82.0631,8.4,1111122 
SCCF RECON,ioos:station:SCCF:11:1,2017-12-16T05:00:00Z,26.4679,-82.0631,7.33,1111122 
SCCF RECON,ioos:station:SCCF:11:1,2017-12-16T06:00:00Z,26.4679,-82.0631,6.24,1111122 
SCCF RECON,ioos:station:SCCF:11:1,2017-12-16T07:00:00Z,26.4679,-82.0631,5.71,1111122 
SCCF RECON,ioos:station:SCCF:11:1,2017-12-16T08:00:00Z,26.4679,-82.0631,5.45,1111122 
SCCF RECON,ioos:station:SCCF:11:1,2017-12-16T09:00:00Z,26.4679,-82.0631,5.33,1111122 
SCCF RECON,ioos:station:SCCF:11:1,2017-12-16T10:00:00Z,26.4679,-82.0631,5.09,1111122 
SCCF RECON,ioos:station:SCCF:11:1,2017-12-16T11:00:00Z,26.4679,-82.0631,4.89,1111122 
SCCF RECON,ioos:station:SCCF:11:1,2017-12-16T12:00:00Z,26.4679,-82.0631,5.63,1111122 
SCCF RECON,ioos:station:SCCF:11:1,2017-12-16T13:00:00Z,26.4679,-82.0631,5.24,1111122 
SCCF RECON,ioos:station:SCCF:11:1,2017-12-16T14:00:00Z,26.4679,-82.0631,5.79,1111122 
SCCF RECON,ioos:station:SCCF:11:1,2017-12-16T15:00:00Z,26.4679,-82.0631,6.62,1111122 
SCCF RECON,ioos:station:SCCF:11:1,2017-12-16T16:00:00Z,26.4679,-82.0631,6.74,1111122 
SCCF RECON,ioos:station:SCCF:11:1,2017-12-16T17:00:00Z,26.4679,-82.0631,7.26,1111122 
SCCF RECON,ioos:station:SCCF:11:1,2017-12-16T18:00:00Z,26.4679,-82.0631,7.57,1111122 
SCCF RECON,ioos:station:SCCF:11:1,2017-12-16T19:00:00Z,26.4679,-82.0631,8.47,1111122 
SCCF RECON,ioos:station:SCCF:11:1,2017-12-16T20:00:00Z,26.4679,-82.0631,8.51,1111122 
SCCF RECON,ioos:station:SCCF:11:1,2017-12-16T21:00:00Z,26.4679,-82.0631,9.27,1111122 
SCCF RECON,ioos:station:SCCF:11:1,2017-12-16T22:00:00Z,26.4679,-82.0631,9.53,1111122 
SCCF RECON,ioos:station:SCCF:11:1,2017-12-17T05:00:00Z,26.4679,-82.0631,8.53,1111122 
SCCF RECON,ioos:station:SCCF:11:1,2017-12-17T06:00:00Z,26.4679,-82.0631,8.52,1111122 
SCCF RECON,ioos:station:SCCF:11:1,2017-12-17T07:00:00Z,26.4679,-82.0631,7.77,1111122 